Regional Weather Roundup
Issued by NWS Midland/Odessa, TX

Home | Current Version | Previous Version | Text Only | Print | Product List | Glossary On
Versions: 1 2 3 4 5 6 7 8 9 10 11 12 13 14 15 16 17 18 19 20 21 22 23 24 25 26 27 28 29 30 31 32 33 34 35 36 37 38 39 40 41 42 43 44 45 46 47 48 49 50
000
ASUS44 KMAF 260010
RWRMAF
MIDLAND AREA WEATHER ROUNDUP
NATIONAL WEATHER SERVICE MIDLAND TX
700 PM CDT MON MAY 25 2015

...IN SOUTHWEST TEXAS AND SOUTHEAST NEW MEXICO...

CITY           SKY/WX    TMP DP  RH WIND       PRES   REMARKS
ALPINE         SUNNY     80  22  12 W10       30.01S
ANDREWS        FAIR      80  44  28 W12G20    29.85F
ARTESIA        SUNNY     84  32  15 SW6       29.82F
BIG SPRING     SUNNY     80  50  35 SW5       29.86F
CARLSBAD       SUNNY     86  32  14 W13G24    29.81F
DRYDEN           N/A     93  16   6 W15G21    29.78F
FORT STOCKTON  SUNNY     85  31  14 W10       29.84F
GUAD PASS      SUNNY     74  28  18 SW23G44   29.96F
HOBBS          SUNNY     79  39  24 S9        29.86F
MARFA          SUNNY     75  25  15 W15       30.00F
MIDLAND AIRPK  SUNNY     83  41  22 W6        29.84F
MIDLAND INTL   SUNNY     82  43  25 SW12      29.83F
ODESSA         SUNNY     82  39  21 SW10      29.84F
PECOS          SUNNY     86  34  16 CALM      29.81F
PRESIDIO       FAIR      89  17   7 N6        29.84S
SEMINOLE       SUNNY     80  40  24 SW10      29.85F
SNYDER         SUNNY     75  55  50 CALM      29.86S
WINK           SUNNY     87  27  11 W16G26    29.80F
$$
...OTHER STATIONS IN TEXAS...

CITY           SKY/WX    TMP DP  RH WIND       PRES   REMARKS
ABILENE        MOSUNNY   74  58  57 NW8       29.84S
AMARILLO       SUNNY     68  49  50 SE16      29.84F
AUSTIN         CLOUDY    69  69 100 SE6       29.83R
BROWNSVILLE    CLOUDY    84  77  79 S18       29.79S
CORPUS CHRISTI PTSUNNY   83  77  82 S23G35    29.74F
DALLAS FTW     CLOUDY    62  61  96 CALM      29.78F
DEL RIO        SUNNY     90  64  42 SE8       29.73F
EL PASO        MOSUNNY   83  26  12 SW14G24   29.90F
HOUSTON INT    CLOUDY    82  74  76 S8        29.85R
LUBBOCK        MOSUNNY   72  54  53 SE13      29.84F
SAN ANGELO     SUNNY     78  61  55 E6        29.81F
SAN ANTONIO    CLOUDY    87  71  58 W7        29.77R
WACO           CLOUDY    66  64  93 S8        29.80S
WICHITA FALLS  NOT AVBL
$$
...OTHER LOCATIONS IN NEW MEXICO...

CITY           SKY/WX    TMP DP  RH WIND       PRES   REMARKS
ALAMAGORDO     MOSUNNY   79  27  14 SW10      29.89F
ALBUQUERQUE    CLOUDY    60  45  57 NW15G26   30.00R
CANNON AFB     NOT AVBL
CLOVIS         SUNNY     75  43  31 W16         N/A
HOLLOMAN AFB   NOT AVBL
ROSWELL        SUNNY     83  34  17 VRB5      29.82F
RUIDOSO        PTSUNNY   59  34  38 W18G29    30.06R
SANTA FE       CLOUDY    62  37  39 W14       29.98R
TRUTH OR CONSE CLOUDY    73  36  25 N10       29.93S
TUCUMCARI      PTSUNNY   79  35  20 W17G23    29.78F
$$


USA.gov is the U.S. government's official web portal to all federal, state and local government web resources and services.